Home   Weather   Vista   Past weeks

Flag for USA Past Weather in Vista, California, USA — Yesterday and Last 2 Weeks

Now
80 °F

Passing clouds.


Feels Like: 81 °F
Forecast: 68 / 90 °F
Wind: 7 mph from West

Location: McClellan-Palomar Airport

Current Time: Sep 27, 2016 at 1:46:55 PM

Latest Report: Sep 27, 2016 at 12:53 PM


Visibility: 10 mi

Pressure: 29.83 "Hg

Humidity: 54%

Dew Point: 62 °F

Location of VistaLocation

Past Weather in Vista — Graph

°F

Vista Temperature Yesterday

Maximum temperature yesterday: 102 °F (at 2:53 PM)
Minimum temperature yesterday: 69 °F (at 2:53 AM)
Average temperature yesterday: 86 °F

High & Low Weather Summary for the Past Weeks

 TemperatureHumidityPressure
High102 °F (Sep 26, 2:53 PM)100% (Sep 18, 4:53 AM)30.05 "Hg (Sep 18, 4:53 AM)
Low56 °F (Sep 16, 6:53 AM)11% (Sep 26, 1:53 PM)29.81 "Hg (Sep 27, 3:53 AM)
Average69 °F71%29.92 "Hg
* Reported Sep 12 12:53 PM — Sep 27 12:53 PM, Vista, Weather by CustomWeather, © 2016

Note: Actual official high and low records may vary slightly from our data, if they occured in-between our weather recording intervals... More about our weather records

Advertising

Vista Weather History for the Previous 24 Hours

Scroll right to see more
 ConditionsComfort  
Time TempWeatherWind HumidityBarometerVisibility
12:53 PM
Tue, Sep 27
80 °FPassing clouds.7 mph54%29.83 "Hg10 mi
11:53 AM82 °FSunny.10 mph43%29.84 "Hg10 mi
10:53 AM93 °FSunny.9 mph23%29.85 "Hg10 mi
9:53 AM90 °FSunny.3 mph26%29.85 "Hg10 mi
8:53 AM86 °FSunny.5 mph30%29.84 "Hg10 mi
7:53 AM83 °FSunny.No wind33%29.83 "Hg10 mi
6:53 AM81 °FSunny.No wind34%29.82 "Hg10 mi
5:53 AM79 °FClear.No wind38%29.81 "Hg10 mi
4:53 AM79 °FClear.3 mph35%29.81 "Hg10 mi
3:53 AM79 °FClear.5 mph35%29.81 "Hg10 mi
2:53 AM77 °FClear.No wind36%29.83 "Hg10 mi
1:53 AM80 °FClear.5 mph34%29.85 "Hg10 mi
12:53 AM83 °FClear.5 mph31%29.86 "Hg10 mi
11:53 PM
Mon, Sep 26
82 °FClear.No wind26%29.86 "Hg10 mi
10:53 PM80 °FClear.9 mph27%29.87 "Hg10 mi
9:53 PM81 °FClear.3 mph24%29.85 "Hg10 mi
8:53 PM83 °FClear.No wind22%29.85 "Hg10 mi
7:53 PM87 °FClear.5 mph18%29.84 "Hg10 mi
6:53 PM88 °FClear.3 mph19%29.84 "Hg10 mi
5:53 PM89 °FSunny.7 mph20%29.82 "Hg10 mi
4:53 PM99 °FSunny.10 mph13%29.82 "Hg10 mi
3:53 PM100 °FSunny.12 mph12%29.83 "Hg10 mi
2:53 PM102 °FSunny.17 mph11%29.84 "Hg10 mi
1:53 PM100 °FSunny.16 mph11%29.86 "Hg10 mi
Weather by CustomWeather, © 2016

See weather overviewHow to use our weather pages